Flag for U.S.A. Weather past 2 weeks in Overland Park, Kansas, U.S.A.

Now
75 °F

Sunny.


Feels Like: 76 °F
Forecast: 47 / 76 °F
Wind: 6 mph from North

Location: Johnson County Executive Airport

Current Time: Mar 31, 2015 at 4:26:12 PM

Latest Report: Mar 31, 2015 at 3:53 PM


Visibility: 10 mi

Pressure: 29.91 "Hg

Humidity: 22%

Dew point: 33 °F

Location of Overland ParkLocation

Historic Weather in Overland Park — Graph

°F

Overland Park temperature yesterday

Maximum temperature yesterday: 71 °F (at 3:53 PM)
Minimum temperature yesterday: 36 °F (at 5:53 AM)
Average temperature yesterday: 55 °F

Past Weeks' High & Low Weather Summary

 TemperatureHumidityPressure
High80 °F (Mar 16, 2:53 PM)100% (Mar 19, 1:53 AM)30.35 "Hg (Mar 19, 1:53 AM)
Low32 °F (Mar 20, 6:53 AM)21% (Mar 30, 1:53 PM)29.76 "Hg (Mar 24, 4:53 PM)
Average49 °F64%30.08 "Hg
* Reported Mar 16 2:53 PM — Mar 31 2:53 PM, Overland Park, Weather by CustomWeather, © 2015

Note: Actual official high and low records may vary slightly from our data, if they occured in-between our weather recording intervals... More about our weather records

Advertising

Overland Park weather history for previous 24 hours

 ConditionsComfort  
Time TempWeatherWind HumidityBarometerVisibility
2:53 PM
Tue, Mar 31
75 °FSunny.8 mph22%29.94 "Hg10 mi
1:53 PM73 °FSunny.6 mph22%29.96 "Hg10 mi
12:53 PM72 °FSunny.10 mph21%29.98 "Hg10 mi
11:53 AM71 °FSunny.9 mph22%30.00 "Hg10 mi
10:53 AM67 °FSunny.12 mph24%30.01 "Hg10 mi
9:53 AM63 °FSunny.12 mph31%29.99 "Hg10 mi
8:53 AM58 °FSunny.9 mph46%29.97 "Hg10 mi
7:53 AM53 °FClear.9 mph56%29.96 "Hg7 mi
6:53 AM51 °FClear.8 mph61%29.93 "Hg8 mi
5:53 AM48 °FClear.No wind68%29.91 "Hg9 mi
4:53 AM52 °FClear.No wind61%29.90 "Hg9 mi
3:53 AM54 °FClear.5 mph55%29.90 "Hg10 mi
2:53 AM56 °FClear.5 mph51%29.92 "Hg10 mi
1:53 AM57 °FClear.5 mph47%29.93 "Hg10 mi
12:53 AM57 °FClear.7 mph46%29.93 "Hg10 mi
11:53 PM
Mon, Mar 30
58 °FClear.7 mph41%29.93 "Hg10 mi
10:53 PM57 °FClear.7 mph44%29.94 "Hg10 mi
9:53 PM58 °FClear.6 mph41%29.96 "Hg10 mi
8:53 PM59 °FClear.6 mph41%29.97 "Hg10 mi
7:53 PM62 °FSunny.6 mph34%29.96 "Hg10 mi
6:53 PM68 °FSunny.7 mph25%29.97 "Hg10 mi
5:53 PM70 °FSunny.13 mph23%29.97 "Hg10 mi
4:53 PM71 °FSunny.14 mph23%29.98 "Hg10 mi
Weather by CustomWeather, © 2015

See weather overviewHow to use our weather pages